H1 CPF 2 NER 2021 4 20 9 110 01 glonass116 H2 0907001 9116 36111 2021 4 20 0 0 0 2021 4 23 23 45 0 900 1 1 0 0 0 1 H9 10 0 59324 0.00000 0 -7696889.248 24327656.255 -253757.289 10 0 59324 900.00000 0 -7513777.519 24140683.511 -3444126.509 10 0 59324 1800.00000 0 -7267413.362 23560208.879 -6567651.554 10 0 59324 2700.00000 0 -7012967.500 22590276.820 -9563696.164 10 0 59324 3600.00000 0 -6804343.152 21247995.901 -12374084.651 10 0 59324 4500.00000 0 -6691681.607 19562952.173 -14944231.597 10 0 59324 5400.00000 0 -6719034.484 17576116.651 -17224202.457 10 0 59324 6300.00000 0 -6922301.603 15338291.589 -19169684.398 10 0 59324 7200.00000 0 -7327522.145 12908159.797 -20742848.461 10 0 59324 8100.00000 0 -7949591.943 10350017.663 -21913086.394 10 0 59324 9000.00000 0 -8791461.924 7731285.700 -22657607.911 10 0 59324 9900.00000 0 -9843852.439 5119899.749 -22961886.792 10 0 59324 10800.00000 0 -11085496.698 2581690.812 -22819947.151 10 0 59324 11700.00000 0 -12483904.262 177861.938 -22234484.151 10 0 59324 12600.00000 0 -13996613.725 -2037333.302 -21216816.553 10 0 59324 13500.00000 0 -15572883.076 -4018614.753 -19786671.628 10 0 59324 14400.00000 0 -17155747.738 -5731318.275 -17971806.095 10 0 59324 15300.00000 0 -18684360.565 -7152589.080 -15807469.943 10 0 59324 16200.00000 0 -20096515.915 -8272076.721 -13335723.078 10 0 59324 17100.00000 0 -21331251.903 -9092103.495 -10604617.669 10 0 59324 18000.00000 0 -22331421.191 -9627300.107 -7667261.983 10 0 59324 18900.00000 0 -23046121.776 -9903725.027 -4580783.947 10 0 59324 19800.00000 0 -23432884.883 -9957505.846 -1405214.899 10 0 59324 20700.00000 0 -23459527.139 -9833061.184 1797684.119 10 0 59324 21600.00000 0 -23105588.410 -9580979.609 4965630.010 10 0 59324 22500.00000 0 -22363294.186 -9255646.570 8037034.886 10 0 59324 23400.00000 0 -21238001.621 -8912720.932 10952208.400 10 0 59324 24300.00000 0 -19748110.264 -8606569.009 13654521.110 10 0 59324 25200.00000 0 -17924441.145 -8387765.478 16091505.811 10 0 59324 26100.00000 0 -15809110.363 -8300767.495 18215875.181 10 0 59324 27000.00000 0 -13453944.468 -8381860.625 19986436.158 10 0 59324 27900.00000 0 -10918503.898 -8657463.457 21368883.750 10 0 59324 28800.00000 0 -8267797.006 -9142862.329 22336459.490 10 0 59324 29700.00000 0 -5569779.641 -9841429.345 22870462.657 10 0 59324 30600.00000 0 -2892743.780 -10744356.478 22960605.245 10 0 59324 31500.00000 0 -302703.111 -11830916.894 22605204.585 10 0 59324 32400.00000 0 2139116.967 -13069242.634 21811210.622 10 0 59324 33300.00000 0 4378581.906 -14417586.397 20594067.712 10 0 59324 34200.00000 0 6370648.849 -15826014.934 18977413.812 10 0 59324 35100.00000 0 8080984.111 -17238463.713 16992622.798 10 0 59324 36000.00000 0 9487131.498 -18595067.429 14678198.445 10 0 59324 36900.00000 0 10579184.154 -19834669.314 12079031.335 10 0 59324 37800.00000 0 11359933.273 -20897404.593 9245532.549 10 0 59324 38700.00000 0 11844488.619 -21727250.131 6232660.314 10 0 59324 39600.00000 0 12059387.747 -22274433.434 3098858.058 10 0 59324 40500.00000 0 12041232.165 -22497599.802 -95075.926 10 0 59324 41400.00000 0 11834908.505 -22365646.308 -3287165.545 10 0 59324 42300.00000 0 11491470.112 -21859144.997 -6415457.822 10 0 59324 43200.00000 0 11065768.871 -20971294.836 -9419224.377 10 0 59324 44100.00000 0 10613937.549 -19708361.486 -12240140.030 10 0 59324 45000.00000 0 10190829.279 -18089585.492 -14823415.419 10 0 59324 45900.00000 0 9847522.649 -16146561.669 -17118861.563 10 0 59324 46800.00000 0 9628998.062 -13922114.556 -19081865.632 10 0 59324 47700.00000 0 9572083.831 -11468715.949 -20674258.921 10 0 59324 48600.00000 0 9703759.122 -8846509.560 -21865060.236 10 0 59324 49500.00000 0 10039885.869 -6121024.199 -22631080.365 10 0 59324 50400.00000 0 10584423.719 -3360669.920 -22957375.867 10 0 59324 51300.00000 0 11329161.879 -634120.524 -22837543.395 10 0 59324 52200.00000 0 12253980.001 1992309.478 -22273848.682 10 0 59324 53100.00000 0 13327628.020 4457184.916 -21277187.407 10 0 59324 54000.00000 0 14508993.053 6706262.826 -19866878.326 10 0 59324 54900.00000 0 15748800.872 8694502.494 -18070292.162 10 0 59324 55800.00000 0 16991680.999 10387689.354 -15922322.976 10 0 59324 56700.00000 0 18178508.932 11763605.718 -13464711.790 10 0 59324 57600.00000 0 19248927.059 12812700.053 -10745235.211 10 0 59324 58500.00000 0 20143937.888 13538227.593 -7816774.711 10 0 59324 59400.00000 0 20808459.950 13955857.356 -4736284.696 10 0 59324 60300.00000 0 21193737.976 14092763.233 -1563679.710 10 0 59324 61200.00000 0 21259504.984 13986238.582 1639336.950 10 0 59324 62100.00000 0 20975804.280 13681894.146 4810479.715 10 0 59324 63000.00000 0 20324393.835 13231516.678 7888098.093 10 0 59324 63900.00000 0 19299673.160 12690680.040 10812380.268 10 0 59324 64800.00000 0 17909093.225 12116210.925 13526518.930 10 0 59324 65700.00000 0 16173031.750 11563617.237 15977816.191 10 0 59324 66600.00000 0 14124138.959 11084588.482 18118705.854 10 0 59324 67500.00000 0 11806181.062 10724674.107 19907673.327 10 0 59324 68400.00000 0 9272429.678 10521237.816 21310055.770 10 0 59324 69300.00000 0 6583664.324 10501773.974 22298707.547 10 0 59324 70200.00000 0 3805870.870 10682656.611 22854518.958 10 0 59324 71100.00000 0 1007731.172 11068373.317 22966779.101 10 0 59324 72000.00000 0 -1741992.436 11651275.752 22633376.612 10 0 59324 72900.00000 0 -4377070.192 12411857.019 21860835.157 10 0 59324 73800.00000 0 -6836308.224 13319544.117 20664183.381 10 0 59324 74700.00000 0 -9065839.456 14333972.265 19066662.077 10 0 59324 75600.00000 0 -11021108.397 15406687.913 17099274.142 10 0 59324 76500.00000 0 -12668468.739 16483209.355 14800185.723 10 0 59324 77400.00000 0 -13986328.551 17505358.898 12213989.687 10 0 59324 78300.00000 0 -14965796.676 18413769.110 9390845.125 10 0 59324 79200.00000 0 -15610804.421 19150458.207 6385508.937 10 0 59324 80100.00000 0 -15937698.462 19661366.483 3256277.853 10 0 59324 81000.00000 0 -15974322.844 19898747.109 63860.997 10 0 59324 81900.00000 0 -15758629.347 19823310.412 -3129795.413 10 0 59324 82800.00000 0 -15336875.189 19406030.937 -6262708.379 10 0 59324 83700.00000 0 -14761484.410 18629540.494 -9274060.175 10 0 59324 84600.00000 0 -14088663.459 17489047.663 -12105378.684 10 0 59324 85500.00000 0 -13375871.778 15992744.036 -14701672.874 10 0 59325 0.00000 0 -12679254.316 14161678.980 -17012501.234 10 0 59325 900.00000 0 -12051144.726 12029106.441 -18992952.624 10 0 59325 1800.00000 0 -11537743.884 9639330.963 -20604519.799 10 0 59325 2700.00000 0 -11177073.383 7046098.239 -21815849.506 10 0 59325 3600.00000 0 -10997288.712 4310597.532 -22603354.147 10 0 59325 4500.00000 0 -11015424.762 1499157.352 -22951673.254 10 0 59325 5400.00000 0 -11236626.301 -1319270.431 -22853975.875 10 0 59325 6300.00000 0 -11653896.435 -4075734.425 -22312097.820 10 0 59325 7200.00000 0 -12248374.136 -6703907.023 -21336510.838 10 0 59325 8100.00000 0 -12990129.743 -9142598.818 -19946123.966 10 0 59325 9000.00000 0 -13839445.442 -11338060.121 -18167920.390 10 0 59325 9900.00000 0 -14748527.262 -13245974.126 -16036436.388 10 0 59325 10800.00000 0 -15663576.727 -14833059.198 -13593091.980 10 0 59325 11700.00000 0 -16527134.923 -16078213.909 -10885385.894 10 0 59325 12600.00000 0 -17280599.919 -16973157.475 -7965970.342 10 0 59325 13500.00000 0 -17866810.906 -17522539.557 -4891623.640 10 0 59325 14400.00000 0 -18232589.307 -17743515.729 -1722140.904 10 0 59325 15300.00000 0 -18331128.770 -17664807.476 1480834.984 10 0 59325 16200.00000 0 -18124132.210 -17325287.572 4655018.698 10 0 59325 17100.00000 0 -17583604.798 -16772151.712 7738699.859 10 0 59325 18000.00000 0 -16693226.420 -16058754.840 10671947.892 10 0 59325 18900.00000 0 -15449245.026 -15242204.730 13397780.261 10 0 59325 19800.00000 0 -13860852.684 -14380815.391 15863270.912 10 0 59325 20700.00000 0 -11950028.092 -13531528.559 18020577.069 10 0 59325 21600.00000 0 -9750851.803 -12747412.498 19827864.626 10 0 59325 22500.00000 0 -7308322.488 -12075343.616 21250114.554 10 0 59325 23400.00000 0 -4676723.400 -11553968.372 22259795.308 10 0 59325 24300.00000 0 -1917606.738 -11212030.743 22837389.052 10 0 59325 25200.00000 0 902520.795 -11067134.921 22971762.404 10 0 59325 26100.00000 0 3714715.675 -11124994.522 22660375.325 10 0 59325 27000.00000 0 6450214.885 -11379199.135 21909324.834 10 0 59325 27900.00000 0 9043045.368 -11811507.448 20733223.170 10 0 59325 28800.00000 0 11432518.434 -12392654.256 19154912.933 10 0 59325 29700.00000 0 13565506.899 -13083637.310 17205024.705 10 0 59325 30600.00000 0 15398411.647 -13837429.962 14921385.351 10 0 59325 31500.00000 0 16898736.988 -14601047.834 12348288.045 10 0 59325 32400.00000 0 18046210.415 -15317882.857 9535637.577 10 0 59325 33300.00000 0 18833401.045 -15930206.737 6537986.898 10 0 59325 34200.00000 0 19265811.778 -16381738.617 3413483.145 10 0 59325 35100.00000 0 19361442.095 -16620168.794 222743.163 10 0 59325 36000.00000 0 19149840.458 -16599531.952 -2972319.922 10 0 59325 36900.00000 0 18670686.585 -16282329.460 -6109696.322 10 0 59325 37800.00000 0 17971963.648 -15641310.648 -9128482.109 10 0 59325 38700.00000 0 17107797.595 -14660837.088 -11970061.200 10 0 59325 39600.00000 0 16136054.850 -13337771.393 -14579243.633 10 0 59325 40500.00000 0 15115799.710 -11681851.853 -16905337.922 10 0 59325 41400.00000 0 14104718.679 -9715535.758 -18903136.617 10 0 59325 42300.00000 0 13156620.282 -7473316.543 -20533795.830 10 0 59325 43200.00000 0 12319115.657 -5000541.814 -21765591.734 10 0 59325 44100.00000 0 11631577.571 -2351780.154 -22574539.417 10 0 59325 45000.00000 0 11123463.788 411196.479 -22944862.067 10 0 59325 45900.00000 0 10813075.364 3221731.968 -22869301.409 10 0 59325 46800.00000 0 10706802.209 6010811.483 -22349263.213 10 0 59325 47700.00000 0 10798887.806 8709688.927 -21394794.807 10 0 59325 48600.00000 0 11071723.167 11252507.905 -20024394.663 10 0 59325 49500.00000 0 11496657.836 13578807.784 -18264657.239 10 0 59325 50400.00000 0 12035293.932 15635810.882 -16149759.503 10 0 59325 51300.00000 0 12641208.750 17380395.855 -13720798.609 10 0 59325 52200.00000 0 13262033.141 18780675.324 -11024993.196 10 0 59325 53100.00000 0 13841797.705 19817112.076 -8114763.679 10 0 59325 54000.00000 0 14323447.179 20483127.659 -5046709.446 10 0 59325 54900.00000 0 14651416.098 20785178.475 -1880503.094 10 0 59325 55800.00000 0 14774156.016 20742296.963 1322276.168 10 0 59325 56700.00000 0 14646506.475 20385118.173 4499346.596 10 0 59325 57600.00000 0 14231808.557 19754433.844 7588941.231 10 0 59325 58500.00000 0 13503670.755 18899336.081 10531013.924 10 0 59325 59400.00000 0 12447311.810 17875030.090 13268409.898 10 0 59325 60300.00000 0 11060423.108 16740409.180 15747977.652 10 0 59325 61200.00000 0 9353513.764 15555495.118 17921600.267 10 0 59325 62100.00000 0 7349723.369 14378852.163 19747126.226 10 0 59325 63000.00000 0 5084109.698 13265083.831 21189182.076 10 0 59325 63900.00000 0 2602440.845 12262517.498 22219851.754 10 0 59325 64800.00000 0 -40458.401 11411173.646 22819210.272 10 0 59325 65700.00000 0 -2782737.642 10741104.242 22975702.317 10 0 59325 66600.00000 0 -5557845.592 10271169.037 22686359.232 10 0 59325 67500.00000 0 -8297052.764 10008300.136 21956850.949 10 0 59325 68400.00000 0 -10932068.408 9947284.674 20801372.303 10 0 59325 69300.00000 0 -13397644.126 10071073.920 19242366.185 10 0 59325 70200.00000 0 -15634057.256 10351605.186 17310088.830 10 0 59325 71100.00000 0 -17589372.082 10751101.608 15042025.346 10 0 59325 72000.00000 0 -19221385.850 11223794.963 12482166.380 10 0 59325 72900.00000 0 -20499179.632 11717999.049 9680159.335 10 0 59325 73800.00000 0 -21404210.288 12178446.322 6690349.977 10 0 59325 74700.00000 0 -21930898.580 12548789.458 3570732.564 10 0 59325 75600.00000 0 -22086689.512 12774162.322 381828.408 10 0 59325 76500.00000 0 -21891582.833 12803692.130 -2814485.631 10 0 59325 77400.00000 0 -21377153.747 12592856.493 -5956176.030 10 0 59325 78300.00000 0 -20585105.267 12105585.268 -8982255.552 10 0 59325 79200.00000 0 -19565413.252 11316017.788 -11833966.857 10 0 59325 80100.00000 0 -18374142.272 10209840.333 -14455923.513 10 0 59325 81000.00000 0 -17071024.274 8785146.334 -16797186.182 10 0 59325 81900.00000 0 -15716901.881 7052781.672 -18812252.997 10 0 59325 82800.00000 0 -14371143.823 5036159.084 -20461944.811 10 0 59325 83700.00000 0 -13089141.066 2770547.856 -21714168.215 10 0 59325 84600.00000 0 -11919988.684 301866.849 -22544541.561 10 0 59325 85500.00000 0 -10904450.728 -2314970.195 -22936871.845 10 0 59326 0.00000 0 -10073293.331 -5018089.512 -22883473.218 10 0 59326 900.00000 0 -9446056.132 -7740989.058 -22385320.748 10 0 59326 1800.00000 0 -9030312.648 -10415070.663 -21452036.355 10 0 59326 2700.00000 0 -8821452.023 -12972268.463 -20101706.587 10 0 59326 3600.00000 0 -8802989.467 -15347664.886 -18360535.525 10 0 59326 4500.00000 0 -8947393.392 -17481985.364 -16262338.920 10 0 59326 5400.00000 0 -9217393.598 -19323868.299 -13847888.950 10 0 59326 6300.00000 0 -9567715.193 -20831815.716 -11164121.909 10 0 59326 7200.00000 0 -9947164.559 -21975743.154 -8263224.068 10 0 59326 8100.00000 0 -10300978.658 -22738064.205 -5201613.494 10 0 59326 9000.00000 0 -10573337.549 -23114264.548 -2038837.857 10 0 59326 9900.00000 0 -10709932.958 -23112941.849 1163589.725 10 0 59326 10800.00000 0 -10660483.213 -22755310.573 4343393.502 10 0 59326 11700.00000 0 -10381087.083 -22074193.365 7438752.373 10 0 59326 12600.00000 0 -9836315.975 -21112542.489 10389507.031 10 0 59326 13500.00000 0 -9000955.138 -19921554.611 13138332.858 10 0 59326 14400.00000 0 -7861319.513 -18558459.316 15631855.228 10 0 59326 15300.00000 0 -6416088.070 -17084075.294 17821685.262 10 0 59326 16200.00000 0 -4676620.924 -15560237.618 19665356.016 10 0 59326 17100.00000 0 -2666745.290 -14047204.465 21127141.328 10 0 59326 18000.00000 0 -422018.796 -12601152.149 22178742.028 10 0 59326 18900.00000 0 2011499.678 -11271863.071 22799827.047 10 0 59326 19800.00000 0 4578920.991 -10100702.691 22978419.864 10 0 59326 20700.00000 0 7218569.649 -9118969.280 22711123.587 10 0 59326 21600.00000 0 9864316.496 -8346684.319 22003181.103 10 0 59326 22500.00000 0 12448104.236 -7791872.953 20868369.587 10 0 59326 23400.00000 0 14902561.823 -7450363.445 19328731.641 10 0 59326 24300.00000 0 17163600.256 -7306113.000 17414148.277 10 0 59326 25200.00000 0 19172882.924 -7332045.390 15161761.649 10 0 59326 26100.00000 0 20880068.729 -7491364.636 12615258.334 10 0 59326 27000.00000 0 22244735.435 -7739289.072 9824026.443 10 0 59326 27900.00000 0 23237903.850 -8025132.549 6842202.283 10 0 59326 28800.00000 0 23843099.693 -8294644.962 3727624.597 10 0 59326 29700.00000 0 24056909.240 -8492513.249 540716.221 10 0 59326 30600.00000 0 23889005.782 -8564917.106 -2656685.435 10 0 59326 31500.00000 0 23361645.952 -8462031.214 -5802526.400 10 0 59326 32400.00000 0 22508657.197 -8140367.840 -8835739.439 10 0 59326 33300.00000 0 21373958.920 -7564860.169 -11697429.149 10 0 59326 34200.00000 0 20009679.403 -6710597.616 -14332015.639 10 0 59326 35100.00000 0 18473947.578 -5564138.784 -16688314.476 10 0 59326 36000.00000 0 16828452.224 -4124345.474 -18720531.847 10 0 59326 36900.00000 0 15135871.002 -2402701.210 -20389155.510 10 0 59326 37800.00000 0 13457276.962 -423099.310 -21661724.306 10 0 59326 38700.00000 0 11849631.076 1778892.335 -22513461.339 10 0 59326 39600.00000 0 10363465.665 4157260.576 -22927758.543 10 0 59326 40500.00000 0 9040855.479 6657220.689 -22896503.230 10 0 59326 41400.00000 0 7913761.080 9217266.050 -22420240.165 10 0 59326 42300.00000 0 7002813.658 11771509.521 -21508165.779 10 0 59326 43200.00000 0 6316591.794 14252220.030 -20177954.269 10 0 59326 44100.00000 0 5851420.128 16592449.407 -18455418.479 10 0 59326 45000.00000 0 5591697.945 18728640.421 -16374011.678 10 0 59326 45900.00000 0 5510743.357 20603107.503 -13974179.391 10 0 59326 46800.00000 0 5572116.932 22166286.692 -11302573.491 10 0 59326 47700.00000 0 5731368.311 23378660.650 -8411143.638 10 0 59326 48600.00000 0 5938131.255 24212278.177 -5356123.761 10 0 59326 49500.00000 0 6138477.669 24651804.547 -2196933.487 10 0 59326 50400.00000 0 6277430.017 24695058.707 1004983.493 10 0 59326 51300.00000 0 6301524.737 24353015.169 4187360.887 10 0 59326 52200.00000 0 6161316.991 23649271.018 7288326.918 10 0 59326 53100.00000 0 5813719.734 22619001.190 10247612.522 10 0 59326 54000.00000 0 5224077.133 21307446.811 13007726.453 10 0 59326 54900.00000 0 4367883.827 19768001.050 15515073.948 10 0 59326 55800.00000 0 3232076.746 18059973.733 17720996.867 10 0 59326 56700.00000 0 1815844.388 16246129.285 19582715.229 10 0 59326 57600.00000 0 130918.935 14390101.605 21064152.214 10 0 59326 58500.00000 0 -1798661.556 12553794.324 22136627.229 10 0 59326 59400.00000 0 -3937311.500 10794874.940 22779404.420 10 0 59326 60300.00000 0 -6239145.621 9164466.920 22980086.913 10 0 59326 61200.00000 0 -8649664.845 7705135.302 22734849.971 10 0 59326 62100.00000 0 -11107810.849 6449248.671 22048509.326 10 0 59326 63000.00000 0 -13548304.703 5417784.542 20934423.826 10 0 59326 63900.00000 0 -15904173.186 4619626.725 19414234.588 10 0 59326 64800.00000 0 -18109358.802 4051382.624 17517445.648 10 0 59326 65700.00000 0 -20101305.857 3697726.930 15280853.962 10 0 59326 66600.00000 0 -21823415.811 3532256.312 12747839.360 10 0 59326 67500.00000 0 -23227270.404 3518818.390 9967527.640 10 0 59326 68400.00000 0 -24274530.424 3613258.552 6993842.386 10 0 59326 69300.00000 0 -24938431.234 3765510.668 3884463.422 10 0 59326 70200.00000 0 -25204812.796 3921943.235 699711.658 10 0 59326 71100.00000 0 -25072641.180 4027861.669 -2498618.366 10 0 59326 72000.00000 0 -24553999.684 4030060.774 -5648455.586 10 0 59326 72900.00000 0 -23673549.814 3879319.127 -8688655.993 10 0 59326 73800.00000 0 -22467484.585 3532729.418 -11560189.187 10 0 59326 74700.00000 0 -20982017.842 2955765.604 -14207284.668 10 0 59326 75600.00000 0 -19271472.753 2123998.672 -16578515.467 10 0 59326 76500.00000 0 -17396049.385 1024387.530 -18627798.023 10 0 59326 77400.00000 0 -15419364.688 -343910.645 -20315288.755 10 0 59326 78300.00000 0 -13405867.643 -1969246.143 -21608160.018 10 0 59326 79200.00000 0 -11418237.425 -3827712.521 -22481240.394 10 0 59326 80100.00000 0 -9514873.114 -5883904.159 -22917506.937 10 0 59326 81000.00000 0 -7747579.527 -8092165.509 -22908419.782 10 0 59326 81900.00000 0 -6159545.445 -10398281.362 -22454092.546 10 0 59326 82800.00000 0 -4783698.378 -12741538.839 -21563294.928 10 0 59326 83700.00000 0 -3641504.138 -15057076.185 -20253287.128 10 0 59326 84600.00000 0 -2742260.906 -17278421.248 -18549488.818 10 0 59326 85500.00000 0 -2082916.803 -19340114.162 -16484988.601 10 0 59327 0.00000 0 -1648417.900 -21180305.069 -14099903.055 10 0 59327 900.00000 0 -1412571.322 -22743218.192 -11440597.055 10 0 59327 1800.00000 0 -1339386.062 -23981379.554 -8558781.203 10 0 59327 2700.00000 0 -1384834.375 -24857513.618 -5510502.776 10 0 59327 3600.00000 0 -1498957.868 -25346030.608 -2355050.889 10 0 59327 4500.00000 0 -1628228.440 -25434040.668 846202.611 10 0 59327 5400.00000 0 -1718062.874 -25121852.862 4031003.239 10 0 59327 6300.00000 0 -1715383.438 -24422938.044 7137430.832 10 0 59327 7200.00000 0 -1571114.998 -23363357.561 10105108.785 10 0 59327 8100.00000 0 -1242511.912 -21980682.381 12876381.372 10 0 59327 9000.00000 0 -695215.357 -20322448.720 15397435.718 10 0 59327 9900.00000 0 95046.520 -18444215.706 17619346.307 10 0 59327 10800.00000 0 1141188.028 -16407307.151 19499021.803 10 0 59327 11700.00000 0 2443978.931 -14276332.415 21000036.180 10 0 59327 12600.00000 0 3991774.574 -12116590.271 22093328.598 10 0 59327 13500.00000 0 5760774.894 -9991464.033 22757759.308 10 0 59327 14400.00000 0 7715802.029 -7959916.113 22980511.691 10 0 59327 15300.00000 0 9811564.555 -6074185.653 22757333.498 10 0 59327 16200.00000 0 11994356.288 -4377784.011 22092613.369 10 0 59327 17100.00000 0 14204119.677 -2903870.245 20999291.669 10 0 59327 18000.00000 0 16376788.592 -1674072.861 19498607.629 10 0 59327 18900.00000 0 18446813.895 -697805.467 17619687.694 10 0 59327 19800.00000 0 20349767.484 27896.579 15398982.753 10 0 59327 20700.00000 0 22024917.039 518012.920 12879564.754 10 0 59327 21600.00000 0 23417664.783 798664.713 10110295.738 10 0 59327 22500.00000 0 24481749.001 905768.474 7144884.794 10 0 59327 23400.00000 0 25181116.555 883274.492 4040850.709 10 0 59327 24300.00000 0 25491388.239 781064.564 858410.017 10 0 59327 25200.00000 0 25400855.535 652598.109 -2340688.349 10 0 59327 26100.00000 0 24910966.782 552406.388 -5494359.175 10 0 59327 27000.00000 0 24036282.069 533541.067 -8541384.721 10 0 59327 27900.00000 0 22803898.310 645085.429 -11422602.643 10 0 59327 28800.00000 0 21252368.180 929833.947 -14082054.787 10 0 59327 29700.00000 0 19430157.776 1422238.972 -16468074.455 10 0 59327 30600.00000 0 17393707.108 2146712.125 -18534290.941 10 0 59327 31500.00000 0 15205174.225 3116353.048 -20240531.712 10 0 59327 32400.00000 0 12929956.856 4332160.337 -21553604.776 10 0 59327 33300.00000 0 10634094.680 5782759.210 -22447946.097 10 0 59327 34200.00000 0 8381660.327 7444658.842 -22906119.468 10 0 59327 35100.00000 0 6232247.499 9283030.060 -22919159.163 10 0 59327 36000.00000 0 4238660.524 11252972.390 -22486748.608 10 0 59327 36900.00000 0 2444901.290 13301218.720 -21617231.321 10 0 59327 37800.00000 0 884536.981 15368207.511 -20327453.632 10 0 59327 38700.00000 0 -420483.816 17390436.900 -18642441.691 10 0 59327 39600.00000 0 -1460517.769 19303002.827 -16594918.617 10 0 59327 40500.00000 0 -2238388.247 21042215.423 -14224670.631 10 0 59327 41400.00000 0 -2769015.686 22548184.191 -11577774.078 10 0 59327 42300.00000 0 -3078533.311 23767263.462 -8705698.193 10 0 59327 43200.00000 0 -3202926.554 24654255.244 -5664301.025 10 0 59327 44100.00000 0 -3186254.726 25174276.567 -2512738.255 10 0 59327 45000.00000 0 -3078531.243 25304212.434 687693.295 10 0 59327 45900.00000 0 -2933353.354 25033692.993 3874754.306 10 0 59327 46800.00000 0 -2805382.909 24365553.666 6986479.672 10 0 59327 47700.00000 0 -2747786.017 23315758.909 9962388.691 10 0 59327 48600.00000 0 -2809741.051 21912793.062 12744664.504 10 0 59327 49500.00000 0 -3034121.377 20196544.207 15279279.329 10 0 59327 50400.00000 0 -3455451.481 18216728.387 17517043.264 10 0 59327 51300.00000 0 -4098223.390 16030920.664 19414556.368 10 0 59327 52200.00000 0 -4975644.798 13702275.742 20935045.872 10 0 59327 53100.00000 0 -6088871.888 11297033.630 22049072.844 10 0 59327 54000.00000 0 -7426759.393 8881914.256 22735095.440 10 0 59327 54900.00000 0 -8966138.715 6521509.195 22979878.700 10 0 59327 55800.00000 0 -10672612.791 4275778.372 22778743.822 10 0 59327 56700.00000 0 -12501835.015 2197754.826 22135652.831 10 0 59327 57600.00000 0 -14401219.383 331551.666 21063127.543 10 0 59327 58500.00000 0 -16312011.181 -1289247.259 19582004.685 10 0 59327 59400.00000 0 -18171632.603 -2642747.555 17721031.925 10 0 59327 60300.00000 0 -19916206.237 -3719408.588 15516312.356 10 0 59327 61200.00000 0 -21483151.769 -4522185.511 13010607.798 10 0 59327 62100.00000 0 -22813748.111 -5066144.465 10252513.861 10 0 59327 63000.00000 0 -23855554.308 -5377568.177 7295522.088 10 0 59327 63900.00000 0 -24564588.180 -5492590.353 4196986.921 10 0 59327 64800.00000 0 -24907171.514 -5455417.070 1017017.015 10 0 59327 65700.00000 0 -24861364.323 -5316210.629 -2182687.900 10 0 59327 66600.00000 0 -24417927.630 -5128725.541 -5340032.098 10 0 59327 67500.00000 0 -23580773.920 -4947796.905 -8393727.736 10 0 59327 68400.00000 0 -22366885.680 -4826787.647 -11284484.067 10 0 59327 69300.00000 0 -20805704.810 -4815102.944 -13956158.678 10 0 59327 70200.00000 0 -18938017.727 -4955877.394 -16356848.296 10 0 59327 71100.00000 0 -16814382.144 -5283933.253 -18439897.891 10 0 59327 72000.00000 0 -14493160.670 -5824096.703 -20164808.352 10 0 59327 72900.00000 0 -12038242.748 -6589944.065 -21498025.186 10 0 59327 73800.00000 0 -9516549.366 -7583031.877 -22413592.963 10 0 59327 74700.00000 0 -6995424.106 -8792644.410 -22893662.799 10 0 59327 75600.00000 0 -4540018.651 -10196070.537 -22928843.054 10 0 59327 76500.00000 0 -2210781.076 -11759399.687 -22518386.298 10 0 59327 77400.00000 0 -61151.087 -13438804.756 -21670208.686 10 0 59327 78300.00000 0 1864442.398 -15182259.387 -20400741.021 10 0 59327 79200.00000 0 3532198.428 -16931618.642 -18734613.913 10 0 59327 80100.00000 0 4920109.085 -18624976.560 -16704182.672 10 0 59327 81000.00000 0 6018624.491 -20199202.233 -14348900.660 10 0 59327 81900.00000 0 6830790.801 -21592548.158 -11714552.856 10 0 59327 82800.00000 0 7371856.277 -22747221.208 -8852364.355 10 0 59327 83700.00000 0 7668363.160 -23611807.865 -5818001.086 10 0 59327 84600.00000 0 7756764.757 -24143451.235 -2670482.403 10 0 59327 85500.00000 0 7681627.336 -24309687.653 528972.738 99